{"data":{"norad_id":40010,"intl_designator":"2014-033A","name":"KAZEOSAT 2","alt_names":[],"object_type":"PAYLOAD","status":"ACTIVE","operator":null,"country":"KAZ","launch_date":"2014-06-19","launch_site_code":"DLS","launch_vehicle":null,"mission":null,"orbit_class":"UNKNOWN","rcs_meters":0.4047,"size_class":null,"mass_kg":null,"dimensions":null,"purposes":["earth_obs"],"wikipedia_slug":null,"has_3d_model":false,"image_url":null,"decayed_at":null,"tle_current":{"epoch":"2026-09-20T03:18:15.216768Z","epoch_age_seconds":49644,"freshness":"FRESH","line1":"1 40010U 14033A   26263.13767612 -.00000045  00000+0  63093-6 0  9994","line2":"2 40010  97.5364  97.7257 0009161  15.7370 344.4129 14.85561613663055","mean_motion":14.85561613,"eccentricity":0.0009161,"inclination_deg":97.5364,"raan_deg":97.7257,"arg_perigee_deg":15.737,"mean_anomaly_deg":344.4129,"bstar":6.3093e-7,"rev_number":66305,"period_min":96.933037808645,"perigee_km":605.42011453075,"apogee_km":618.22712037404,"semimajor_km":6989.9606174524,"source":"CELESTRAK","updated_at":"2026-09-20T09:00:33.896727Z"}}}